ECHOSTAR 15

Last updated on Thu Jul 03 2025 00:02:45 GMT+0000 (Coordinated Universal Time)

1 36792U 10034A 25183.54620463 -.00000070 00000+0 00000+0 0 9990 2 36792 0.0226 296.2711 0002425 135.6543 302.5093 1.00113591 54818
UTC large
Height (km)
Speed (km/s)
/
Latitude / Longitude
Inclination (degrees)
Orbital Period (minutes)
Azimuth
Elevation
Range (km)
Doppler Factor

Next 0 passes for location: London (51.5072 / 0.1276)

Sorry there are no passes over London.